This demonstration page uses our WeatherBlox Daily Observations layout. Learn more.

Left ArrowRight Arrow

44.89941, -97.11507

Hourly Observations for March 20, 2017

Temp ( °F °C ) Dew Point ( °F °C ) Humidity (%) Winds ( mph kmh ) Pressure ( in mb ) Visibility ( mi km ) Precip ( " mm )
12:53 am 00:53 Clear 32 0 30 -1.1 92 92 NNE 7 11 30.05 1018 10 16 0.00 0.00
1:53 am 01:53 Mostly Clear 35 1.7 33 0.6 93 93 NNE 10 17 30.06 1018 10 16 0.00 0.00
2:53 am 02:53 Clear 36 2.2 32 0 86 86 NNE 13 20 30.08 1019 10 16 0.00 0.00
3:53 am 03:53 Mostly Cloudy 36 2.2 32 0 86 86 N 15 24 30.10 1019 10 16 0.00 0.00
4:53 am 04:53 Mostly Cloudy 36 2.2 31 -0.6 82 82 NNE 15 24 30.11 1020 10 16 0.00 0.00
5:53 am 05:53 Mostly Cloudy 37 2.8 30 -1.1 76 76 N 15 24 30.13 1020 10 16 0.00 0.00
6:53 am 06:53 Cloudy 36 2.2 29 -1.7 76 76 NNE 15 24 30.14 1021 10 16 0.00 0.00
7:53 am 07:53 Cloudy 36 2.2 29 -1.7 76 76 NNE 8 13 30.17 1022 10 16 0.00 0.00
8:53 am 08:53 Cloudy 37 2.8 29 -1.7 73 73 NNE 12 19 30.21 1023 10 16 0.00 0.00
9:53 am 09:53 Cloudy 38 3.3 29 -1.7 70 70 NNE 10 17 30.23 1024 10 16 0.00 0.00
10:53 am 10:53 Cloudy 41 5 28 -2.2 60 60 NNE 13 20 30.24 1024 10 16 0.00 0.00
11:53 am 11:53 Cloudy 42 5.6 29 -1.7 60 60 N 8 13 30.26 1025 10 16 0.00 0.00
12:53 pm 12:53 Cloudy 44 6.7 29 -1.7 55 55 N 7 11 30.26 1025 10 16 0.00 0.00
1:53 pm 13:53 Cloudy 46 7.8 28 -2.2 50 50 NNE 6 9 30.24 1024 10 16 0.00 0.00
2:53 pm 14:53 Cloudy 48 8.9 24 -4.4 39 39 N 8 13 30.23 1024 10 16 0.00 0.00
3:53 pm 15:53 Cloudy 49 9.4 23 -5 36 36 N 8 13 30.22 1023 10 16 0.00 0.00
4:53 pm 16:53 Cloudy 50 10 20 -6.7 30 30 NNE 7 11 30.22 1024 10 16 0.00 0.00
5:53 pm 17:53 Sunny 48 8.9 21 -6.1 34 34 NNW 9 15 30.24 1024 10 16 0.00 0.00
6:53 pm 18:53 Sunny 45 7.2 24 -4.4 44 44 N 7 11 30.25 1024 10 16 0.00 0.00
7:53 pm 19:53 Clear 41 5 23 -5 49 49 NNW 7 11 30.27 1025 10 16 0.00 0.00
8:53 pm 20:53 Clear 38 3.3 24 -4.4 57 57 N 9 15 30.29 1026 10 16 0.00 0.00
9:53 pm 21:53 Clear 32 0 23 -5 69 69 N 6 9 30.31 1027 10 16 0.00 0.00
10:53 pm 22:53 Cloudy 33 0.6 25 -3.9 72 72 N 8 13 30.33 1027 10 16 0.00 0.00
11:53 pm 23:53 Mostly Cloudy 34 1.1 26 -3.3 73 73 N 12 19 30.34 1027 10 16 0.00 0.00

Powered by AerisWeather